Weather in Corvara in Badia

Italy     46°33′04″N   11°52′26″E
temp.,
°C
wind,
m/s
gust,
m/s
humid.,
%
clouds,
%
prec.,
mm/h
press.,
hPa
HPBL,
m
8 august, mon
mon823:00+8ese1191100 0.0 102215
02:00+7e1188100 0.0 102111
05:00+7ene1190100 0.0 102114
08:00+11ne128594 0.0 102092
11:00+17nnw1150100 0.0 10191235
14:00+18nw1148100 0.2 10181560
17:00+17s225918 0.8 10181273
20:00+13sse118014 1.1 102014
9 august, tue
tue923:00+10e11880 0.1 102313
02:00+9ene11910 0.1 102312
05:00+8ene11910 0.0 102312
08:00+12nne12742 0.0 102295
11:00+18n11340 0.0 10211271
14:00+21nnw21250 0.0 10192296
17:00+21w12304 0.1 10192489
20:00+13sse11792 0.4 102113
10 august, wed
wed1023:00+11se11902 0.3 102412
02:00+10s119623 0.6 102411
05:00+9sw119722 0.0 102411
08:00+12nw119146 0.1 1023122
11:00+17nw116245 0.1 10211208
14:00+18wsw125332 0.4 10201650
17:00+17ssw226543 1.1 1020933
20:00+12sse229358 2.5 102227
11 august, thu
thu1123:00+10sse229540 0.3 102331
02:00+10s119654 0.4 102325
05:00+9s119461 0.0 102316
08:00+11nw11927 0.0 1022121
11:00+17nw1161100 0.0 10201107
14:00+19w234952 0.4 10181778
17:00+16ssw227752 1.9 1018402
20:00+11se2297100 8.9 101957
12 august, fri
fri1223:00+9sse11975 7.6 102137
02:00+8sse11940 7.8 102012
05:00+7sse11955 0.3 101914
08:00+9sse129444 1.5 1019118
11:00+12s128755 2.4 1018509
14:00+13s128695 8.5 1017565
17:00+11s2292100 7.1 1018231
20:00+9se129762 10.6 101969